sat.trackr.live / text

‹ back to catalog

STARLINK-32260

NORAD 61522 · 2024-183P

PAYLOAD ACTIVE UNKNOWN

§ Identity

Operator
Country
US
Launch date
2024-10-15
Launch site
AFETR
Launch vehicle
Mass (kg)
RCS (m²)

Purposes: comms

External: N2YO · Heavens-Above · Gunter

§ Orbital elements

Epoch: 2026-05-25T03:44:43.144224Z

Period
94.10 min
Inclination
53.1591°
Eccentricity
0.0001377
Mean motion
15.30333793 rev/d
Perigee alt
473.9 km
Apogee alt
475.8 km
Semi-major
6,853.0 km
B*
1.2724e-4
RAAN
146.9843°
Arg perigee
65.1920°
Mean anomaly
294.9224°
Rev number
9,136

§ Raw data

STARLINK-322601 61522U 24183P   26145.15605491  .00003426  00000+0  12724-3 0  99962 61522  53.1591 146.9843 0001377  65.1920 294.9224 15.30333793 91366

JSON: /api/v1/satellites/61522 · /tle

For live sub-satellite position, see the globe view (requires WebGL).

§ Visibility from observer

Set your observer location to see the next 7 days of passes ≥ 10°. The values pass through the URL so the page stays shareable.

No JS? Fill the form by hand. The geolocation button needs JavaScript.